Virtual Norwegian is not affiliated with Norwegian Air Shuttle in any way.
If you are looking for the real "Norwegian", or you wish to book Norwegian flights, please visit Norwegian.com


We use cookies to ensure you get the best experience on our website.   ACCEPT

ENDU - BDU - Bardufoss (Bardufoss)

General Info Alternate Airport
ICAO: ENDU Elevation: 252 ft ICAO: ENTC
IATA: BDU Country: Norway IATA: TOS
City: Bardufoss Charts: Log in to view charts City: Tromso
Name: Bardufoss Hub: No Name Langnes
General Info
ICAO: ENDU
IATA: BDU
City: Bardufoss
Name: Bardufoss
Elevation: 252 ft
Country: Norway
Charts: Log in to view charts
Hub: No
 
Alternate Airport
ICAO: ENTC
IATA: TOS
City: Tromso
Name: Langnes

Weather
192020Z AUTO 36008KT 9999 BKN094/// 14/11 Q1002 RMK WIND 1100FT 04005KT WIND 2200FT 07008KT
Weather
192020Z AUTO 36008KT 9999 BKN094/// 14/11 Q1002 RMK WIND 1100FT 04005KT WIND 2200FT 07008KT

Runway Info
10
Length ILS/LOC Course
2443 m 110.30 107
28
Length ILS/LOC Course
2443 m 108.70 282

NOTAMs
NOTAMs currently unavailable.
NOTAMs
NOTAMs currently unavailable

Route map
Airport
Airport (hub)